LUCAS (JDRS-1)

Last updated on Tue Sep 16 2025 00:02:50 GMT+0000 (Coordinated Universal Time)

1 47202U 20089A 25258.10295501 -.00000251 00000+0 00000+0 0 9996 2 47202 0.0693 74.2888 0002510 102.5920 305.2531 1.00275029 17664
UTC large
Height (km)
Speed (km/s)
/
Latitude / Longitude
Inclination (degrees)
Orbital Period (minutes)
Azimuth
Elevation
Range (km)
Doppler Factor

Next 0 passes for location: London (51.5072 / 0.1276)

Sorry there are no passes over London.